Flag for Germany Weather past 2 weeks in Greifswald, Mecklenburg-Western Pomerania, Germany

Now
54 °F

Overcast.


Feels Like: 54 °F
Forecast: 45 / 65 °F
Wind: 2 mph from West

Location: Greifswald

Current Time: May 23, 2015 at 6:55:30 AM

Latest Report: May 23, 2015 at 5:00 AM


Visibility: 16 mi

Pressure: 30.10 "Hg

Humidity: 79%

Dew point: 47 °F

Location of GreifswaldLocation

Historic Weather in Greifswald — Graph

°F

Greifswald temperature yesterday

Maximum temperature yesterday: 63 °F (at 6:00 PM)
Minimum temperature yesterday: 42 °F (at 4:00 AM)
Average temperature yesterday: 53 °F

Past Weeks' High & Low Weather Summary

 TemperatureHumidityPressure
High76 °F (May 12, 2:00 PM)99% (May 10, 1:00 AM)30.38 "Hg (May 10, 1:00 AM)
Low38 °F (May 11, 6:00 AM)43% (May 11, 6:00 PM)29.57 "Hg (May 19, 5:00 AM)
Average52 °F74%30.02 "Hg
* Reported May 8 6:00 AM — May 23 5:00 AM, Greifswald, Weather by CustomWeather, © 2015

Note: Actual official high and low records may vary slightly from our data, if they occured in-between our weather recording intervals... More about our weather records

Advertising

Greifswald weather history for previous 24 hours

 ConditionsComfort  
Time TempWeatherWind HumidityBarometerVisibility
5:00 AM
Sat, May 23
54 °FOvercast.2 mph79%30.10 "Hg16 mi
4:00 AM54 °FOvercast.2 mph78%30.11 "Hg19 mi
3:00 AM53 °FPassing clouds.3 mph80%30.12 "Hg19 mi
2:00 AM54 °FPassing clouds.3 mph79%30.13 "Hg19 mi
1:00 AM53 °FPassing clouds.2 mph85%30.14 "Hg16 mi
12:00 AM53 °FClear.2 mph84%30.16 "Hg17 mi
11:00 PM
Fri, May 22
53 °FPassing clouds.2 mph85%30.16 "Hg16 mi
10:00 PM53 °FPassing clouds.1 mph87%30.17 "Hg16 mi
9:00 PM56 °FOvercast.3 mph78%30.18 "Hg19 mi
8:00 PM59 °FOvercast.3 mph75%30.18 "Hg22 mi
7:00 PM58 °FOvercast.5 mph68%30.19 "Hg25 mi
6:00 PM63 °FOvercast.3 mph54%30.20 "Hg31 mi
5:00 PM62 °FPartly sunny.5 mph55%30.22 "Hg28 mi
4:00 PM62 °FOvercast.3 mph56%30.23 "Hg28 mi
3:00 PM61 °FOvercast.3 mph57%30.24 "Hg28 mi
2:00 PM60 °FOvercast.3 mph55%30.25 "Hg25 mi
1:00 PM59 °FPartly sunny.5 mph59%30.27 "Hg16 mi
12:00 PM58 °FPartly sunny.5 mph57%30.28 "Hg22 mi
10:00 AM55 °FScattered clouds.3 mph60%30.29 "Hg15 mi
9:00 AM53 °FPartly sunny.3 mph71%30.31 "Hg19 mi
8:00 AM51 °FScattered clouds.2 mph77%30.30 "Hg9 mi
7:00 AM46 °FPassing clouds.2 mph87%30.30 "Hg11 mi
6:00 AM42 °FPassing clouds.1 mph96%30.29 "Hg7 mi
Weather by CustomWeather, © 2015

See weather overviewHow to use our weather pages